www.pogodaiklimat.ru

Погода и климат >> Архив погоды >> Россия >> Костромская область >> Кологрив


АРХИВ ПОГОДЫ в Кологриве

Время (UTC), дата Ветер
(напр.,м/с)
 
Видим.   Явления Облачность Т
(С)
Тd
(С)
f
(%)
Тe
(С)
Тes
(С)
Комфортность P
(гПа)
Po
(гПа)
Тmin
(С)
Tmax
(С)
R
(мм)
R24
(мм)
S
(см)
15 18.06 штиль 0 10 км 10/5 300 м
[Cb cap Ci fib]
+19.7 +14.8 73 +21 +23 комфорт 1007.8 990.3 +26.2 3
18 18.06 штиль 0 10 км 8/4 300 м
[Cb cap Ci fib]
+18.4 +13.2 72 +19 +19 1008.3 990.7
21 18.06 штиль 0 10 км 8/0
[Ac trans Ci fib]
+13.2 +12.7 97 +13 +13 1009.4 991.5
00 19.06 СЗ 1 10 км 4/0
[Ci fib]
+12.6 +11.7 94 +13 +13 1010.2 992.3
03 19.06 ЮЗ 1 10 км 4/3 300 м
[Cu hum Ci fib]
+15.1 +13.9 93 +16 +18 1010.4 992.6 +11.4
06 19.06 З 1 15 км 3/0
[Ci fib]
+22.3 +14.3 61 +26 +37 жарко 1010.2 992.8
09 19.06 СЗ 1 15 км 8/6 300 м
[Cb cap Ac As Ci fib]
+22.7 +13.4 56 +26 +31 жарко 1011.1 993.7
12 19.06 С 1 15 км 6/4 300 м
[Cb cap Ac As Ci fib]
+24.6 +11.8 45 +26 +32 жарко 1011.1 993.9
15 19.06 СЗ 1 15 км 6/3 300 м
[Cu med, cong Ci fib]
+23.5 +10.3 43 +25 +27 комфорт 1011.2 993.8 +26.0
18 19.06 С 2
{10}
8000 м слаб. ливневой дождь 10/5 300 м
[Cb cap As op]
+15.8 +14.2 90 +16 +16 1012.8 995.0
21 19.06 штиль 0 10 км {ливн. осадки} 3/0
[Ci fib]
+12.1 +12.0 99 +11 +11 1012.5 994.5
00 20.06 штиль 0 10 км {ливн. осадки} 4/0
[Ci fib]
+10.7 +10.6 99 +10 +10 1012.8 994.7
03 20.06 штиль 0 15 км 3/0
[Ci fib]
+13.7 +13.6 99 +13 +16 1013.5 995.5 +9.8 0.5
06 20.06 З 1 15 км ясно +22.5 +12.7 54 +25 +37 комфорт 1013.3 995.9
09 20.06 З 1 15 км 6/4 300 м
[Cu hum Ci fib]
+24.6 +11.1 43 +26 +36 жарко 1013.5 996.2
12 20.06 З 1 15 км 6/4 600 м
[Cb cap Ci fib]
+25.8 +10.3 38 +27 +33 жарко 1013.0 995.8
15 20.06 штиль 0 8000 м слаб. ливневой дождь 10/5 300 м
[Cb cap As op]
+17.0 +16.6 97 +17 +17 1015.2 997.5 +26.2 4
18 20.06 штиль 0 6000 м дымка {ливн. осадки} 6/0
[Ac lent Ci fib]
+15.6 +15.3 98 +15 +15 1015.6 997.7
21 20.06 С 1 4000 м дымка 6/0
[Ci fib]
+12.4 +12.3 99 +12 +12 1016.6 998.5
00 21.06 штиль 0 6000 м дымка 10/0
[Ac As Ci fib]
+11.5 +11.5 100 +11 +11 1017.5 999.3
03 21.06 штиль 0 10 км 6/0
[Ac lent Ci fib]
+14.7 +14.7 100 +14 +17 1018.0 1000.0 +11.1 0.3
06 21.06 ЮВ 1 15 км 6/3 300 м
[Cu med, cong Ac trans Ci fib]
+21.8 +16.5 72 +26 +32 душно 1017.4 999.9
09 21.06 штиль 0 15 км 10/4 300 м
[Cb cap Ac trans]
+22.8 +17.0 70 +28 +32 душно 1017.4 999.9
12 21.06 штиль 0 15 км 8/4 300 м
[Cb cap Ac trans Ci fib]
+25.1 +14.7 52 +28 +33 жарко 1016.7 999.4
15 21.06 Ю 3 15 км 6/3 300 м
[Cb cap Ac trans Ci fib]
+23.4 +16.2 64 +28 +29 душно 1015.8 998.5 +26.1
18 21.06 штиль 0 15 км {гроза} 4/0
[Ac trans Ci fib]
+17.4 +15.5 89 +17 +17 1015.7 997.9
21 21.06 штиль 0 10 км 4/0
[Ci fib]
+14.6 +14.3 98 +14 +14 1015.7 997.8
00 22.06 С 1 10 км 4/0
[Ac trans Ci fib]
+13.0 +12.9 99 +13 +13 1015.3 997.3
03 22.06 ЮЗ 1 10 км 10/6 300 м
[Cb cap As op]
+16.9 +15.1 89 +18 +18 1015.1 997.3 +12.9
06 22.06 Ю 1 10 км в посл. час ливневой дождь 10/6 300 м
[Cb cap As op]
+18.4 +17.7 96 +20 +21 1013.4 995.7
09 22.06 Ю 4 10 км 10/5 300 м
[Cb cap As op Ci fib]
+23.7 +18.6 73 +28 +31 душно 1012.2 994.9
12 22.06 ЮЗ 1 10 км 10/5 300 м
[Cb cap Ci fib]
+25.0 +19.0 69 +30 +35 душно 1011.1 993.9
15 22.06 ЮЗ 1 10 км 10/6 300 м
[Cb cap As op]
+22.8 +20.0 84 +29 +30 очень
душно
1010.1 992.8 +26.3 2
18 22.06 штиль 0 10 км 10/5 300 м
[Cb cap Ci fib]
+19.5 +19.0 97 +22 +22 комфорт 1010.7 993.2
21 22.06 штиль 0 10 км {ливн. осадки} 10/5 300 м
[Cb cap Ci fib]
+17.9 +17.6 98 +18 +18 1011.5 993.8
00 23.06 З 1 10 км {ливн. осадки} 10/6 300 м
[Cb cap As op]
+18.4 +18.0 98 +20 +20 1012.6 995.0
03 23.06 СЗ 1 10 км 6/3 300 м
[Cb cap Ac trans Ci fib]
+18.5 +16.6 89 +20 +22 1014.3 996.7 +17.8 3
06 23.06 СЗ 1 15 км ясно +22.4 +12.6 54 +25 +37 комфорт 1015.6 998.1
09 23.06 СЗ 2 15 км 3/0
[Ci fib]
+23.4 +7.5 36 +24 +38 комфорт 1015.9 998.5
12 23.06 ЮЗ 1 15 км 3/0
[Ci fib]
+24.0 +6.7 33 +24 +35 комфорт 1016.2 998.8
15 23.06 З 1 15 км 3/0
[Ci fib]
+22.4 +6.6 36 +23 +26 комфорт 1016.3 998.8 +24.2
18 23.06 штиль 0 10 км 8/0
[Ac inh Ci fib]
+15.5 +8.3 62 +15 +15 1017.3 999.4
21 23.06 штиль 0 10 км 8/0
[Ac As Ci fib]
+12.9 +8.1 73 +13 +13 1018.0 999.9
00 24.06 штиль 0 10 км 4/0
[Ac As Ci fib]
+8.3 +7.9 97 +7 +7 1019.3 1000.8
03 24.06 штиль 0 15 км 3/0
[Ci fib]
+12.1 +9.4 84 +12 +15 1020.0 1001.8 +7.5
06 24.06 СЗ 1 15 км 4/0
[Ci fib]
+19.9 +7.2 44 +22 +33 комфорт 1019.6 1001.9
09 24.06 ЮЗ 1 15 км 10/5 300 м
[Cb cap Ci fib]
+21.7 +5.4 35 +22 +29 комфорт 1019.1 1001.5
12 24.06 СЗ 1 10 км 10/5 300 м
[Cb cap Ac As]
+19.6 +6.0 41 +21 +23 комфорт 1019.5 1001.8
15 24.06 СЗ 1 10 км 4/0
[Ac lent Ci fib]
+20.5 +3.8 33 +22 +25 комфорт 1019.1 1001.4 +21.8
18 24.06 штиль 0 10 км 10/5 300 м
[Cb cap As op Ci fib]
+15.4 +6.9 57 +15 +15 1020.4 1002.4
21 24.06 штиль 0 10 км 10/5 300 м
[Cb cap As op]
+11.8 +7.6 75 +11 +11 1021.2 1003.0
00 25.06 штиль 0 10 км 3/0
[Ci fib]
+8.9 +7.5 91 +8 +8 1022.2 1003.8
03 25.06 СЗ 1 15 км ясно +10.9 +8.8 87 +11 +13 1022.7 1004.4 +7.8
06 25.06 СЗ 1 15 км 10/4 300 м
[Cb cap As op]
+14.5 +9.2 70 +15 +16 1023.2 1005.1
09 25.06 СЗ 2 15 км 10/4 300 м
[Cb cap Ac trans]
+14.6 +8.2 65 +14 +18 1023.8 1005.7
12 25.06 СЗ 3 15 км 8/4 300 м
[Cb cap Ac trans Ci fib]
+16.8 +7.8 55 +17 +20 1023.8 1005.8

 

Местоположение метеостанции Кологрив (Костромская область, Россия): широта 58.82 долгота 44.32 высота над уровнем моря 151 м.

В архиве по умолчанию представлена погода в Кологриве за последнюю неделю. Архивные данные за месяц целиком и за предыдущие месяцы, начиная с января 2011 года, Вы можете получить, выбрав интересующий диапазон дат из раскрывающегося списка и нажав кнопку "Ввод!".


*Определитесь, кто Вы:
робот инопланетянин человек

Внимание! Время в таблицах - всемирное. Для получения местного времени необходимо прибавить поправку, которая равна 3 ч.

Смотрите также архив погоды в соседних городах и на ближайших метеорологических станциях:

Погода в Мантурово (Костромская область, Россия) (61 км)
Погода в Николо-Поломе (Костромская область, Россия) (76 км)
Погода в Пыщуге (Костромская область, Россия) (80 км)
Погода в Шарье (Костромская область, Россия) (86 км)
Погода в Чухломе (Костромская область, Россия) (95 км)
Погода в Никольске (Вологодская область, Россия) (103 км)
Погода в Макарьеве (Костромская область, Россия) (107 км)
Погода в Галиче (Костромская область, Россия) (123 км)
Погода в Ветлуге (Нижегородская область, Россия) (137 км)
Погода в Вохме (Костромская область, Россия) (141 км)

Пояснения к столбцам:

Ветер - указаны скорость ветра в м/с - средняя за 10 мин, порывы в срок и между сроками (в фигурных скобках) и направление, откуда дует ветер: С - северный, СВ - северо-восточный, В - восточный, ЮВ - юго-восточный, Ю - южный, ЮЗ - юго-западный, З - западный, СЗ - северо-западный.
Видимость - горизонтальная дальность видимости в метрах или километрах. При видимости от 1 до 10 км при отсутствии осадков обычно наблюдается дымка, при ухудшении видимости до 1 км и менее - туман. В сухую погоду видимость может ухудшаться дымом, пылью или мглою.
Явления - указаны атмосферные явления, наблюдавшиеся в срок или в последний час перед сроком; фигурными скобками обозначены явления, наблюдавшиеся между сроками (за 1-3 часа до срока); квадратными скобками обозначены град или гололедные отложения с указанием их диаметра в мм.
Облачность - указаны через наклонную черту общая и нижняя облачность в баллах и высота нижней границы облаков в метрах; квадратными скобками обозначены формы облаков: Ci - перистые, Cs - перисто-слоистые, Cc - перисто-кучевые, Ac - высококучевые, As - высокослоистые, Sc - слоисто-кучевые, Ns - слоисто-дождевые, Cu - кучевые, Cb - кучево-дождевые. Подробнее классификацию облаков см. в Атласе облаков (PDF).
T - Температура воздуха - температура, измеренная на высоте 2 м над землей.
Td - Температура точки росы - температура, при понижении до которой содержащийся в воздухе водяной пар достигнет насыщения.
f - Относительная влажность воздуха - влажноcть воздуха, измеренная на высоте 2 м над землей.
Te - Эффективная температура - температура, которую ощущает одетый по сезону человек в тени. Характеристика душности погоды. При расчете учитывается влияние влажности воздуха и скорости ветра на теплоощущения человека.
Tes - Эффективная температура на солнце - температура, которую ощущает человек, с поправкой на солнечный нагрев. Характеристика знойности погоды. Зависит от высоты солнца над горизонтом, облачности и скорости ветра. Ночью, в пасмурную погоду, а также при ветре 12 м/с и более поправка равна нулю.
P - Атмосферное давление - приведенное к уровню моря атмосферное давление.
Po - Атмосферное давление - измеренное на уровне метеостанции атмосферное давление.
Tmin - Минимальная температура - минимум температуры воздуха на высоте 2 м над землей.
Tmax - Максимальная температура - максимум температуры воздуха на высоте 2 м над землей.
R - Количество осадков - Количество выпавших осадков за период времени, мм. При наведении курсора мыши на число - период времени, за который выпало указанное количество осадков.
R24 - Количество осадков - Количество выпавших осадков за 24 часа, мм.
S - Снежный покров - Высота снежного покрова, см. При наведении курсора мыши на число - состояние снежного покрова и степень покрытия местности в баллах.